[[{"header":{"parameterUnit":"m.s-1","parameterCategory":2,"la1":30.2992,"la2":30.254,"lo1":-89.0895,"lo2":-89.0443,"dy":0.0025,"dx":0.0025,"nx":19,"ny":19,"refTime":"2026-04-21T09:00:00:Z","depth":"0","parameterNumber":2,"parameterNumberName":"U-component_of_CURRENTS"},"data":[0,0,0,0.4597,0.4598,0.4604,0.4604,0.467,0.4671,0,0,0,0,0,0,0,0,0,0,0,0.4572,0.4573,0.4597,0.4598,0.4604,0.4604,0.467,0.4671,0,0,0,0,0,0,0,0,0,0,0,0.4572,0.4573,0.4573,0.4599,0.4604,0.4604,0.467,0.4641,0,0,0,0,0,0,0,0,0,0,0.4624,0.4598,0.4573,0.4573,0.4599,0.4604,0.4604,0.4639,0.4643,0.4697,0,0.4708,0,0.4722,0.4681,0.4681,0,0,0,0.4559,0.4594,0.4618,0.4573,0.46,0.4605,0.459,0.464,0.4645,0.4703,0.4709,0.4711,0.4723,0.4682,0.4682,0.4908,0.4909,0,0,0.4559,0.4552,0.4614,0.4622,0.4618,0.4591,0.4591,0.4642,0.4644,0.4709,0.4713,0.4724,0.4683,0.4684,0.4906,0.4908,0,0,0,0.4584,0.4552,0.4571,0.4618,0.4632,0.4592,0.4592,0.464,0.4653,0.4714,0.4725,0.4683,0.4685,0.4905,0.4907,0.49,0,0,0,0.4582,0.457,0.4571,0.4564,0.4631,0.4629,0.4589,0.4648,0.4655,0.4725,0.4683,0.4686,0.4903,0.4906,0.4897,0.4981,0,0,0,0.4569,0.4568,0.4578,0.4564,0.4589,0.4628,0.464,0.4648,0.4665,0.4681,0.4687,0.4902,0.4906,0.4894,0.4974,0.5036,0,0,0,0.4548,0.4551,0.4577,0.4598,0.459,0.4654,0.4639,0.4675,0.4691,0.4684,0.4904,0.4907,0.4893,0.497,0.5031,0.4938,0.495,0,0,0.4537,0.4549,0.4565,0.4591,0.4645,0.4649,0.4718,0.4728,0.4768,0.488,0.4885,0.4898,0.4974,0.5035,0.5133,0.5139,0,0,0,0.4554,0.4556,0.4583,0.4621,0.4684,0.4748,0.4761,0.4807,0.4889,0.4803,0.4969,0.5022,0.5057,0.4993,0.5,0.4837,0.4923,0.4922,0.4922,0.4464,0.4527,0.456,0.464,0.4709,0.4816,0.4895,0.4977,0.4952,0.5015,0.5063,0.5187,0.5119,0.5123,0.4956,0.5074,0.5074,0.5074,0.5074,0.4417,0.4426,0.4545,0.4598,0.4728,0.4816,0.5022,0.5051,0.5216,0.5163,0.5193,0.5052,0.5129,0.4949,0.5075,0.5075,0.5075,0.5074,0.5074,0.4306,0.4329,0.4387,0.4508,0.4658,0.4829,0.5027,0.5174,0.5272,0.5341,0.5255,0.5253,0.5055,0.5307,0.5308,0.5309,0.5309,0.531,0.531,0.4162,0.4235,0.4277,0.4433,0.4521,0.4725,0.5042,0.5179,0.5308,0.5339,0.5336,0.51,0.526,0.5205,0.532,0.5318,0.5317,0.5316,0.5315,0.4028,0.4084,0.414,0.4209,0.4421,0.452,0.486,0.5106,0.5275,0.5308,0.5135,0.5332,0.5347,0.534,0.529,0.5421,0.5421,0.5421,0.5421,0.3927,0.3968,0.402,0.4095,0.4229,0.4417,0.4503,0.4731,0.4955,0.4984,0.5088,0.4942,0.4945,0.4929,0.4931,0.4871,0.4893,0.4892,0.4891,0.3858,0.3904,0.3889,0.3991,0.4117,0.425,0.4214,0.4204,0.4547,0.4857,0.4886,0.4909,0.4679,0.4697,0.4655,0.4671,0.4568,0,0]},{"header":{"parameterUnit":"m.s-1","parameterCategory":2,"la1":30.2992,"la2":30.254,"lo1":-89.0895,"lo2":-89.0443,"dy":0.0025,"dx":0.0025,"nx":19,"ny":19,"refTime":"2026-04-21T09:00:00:Z","depth":"0","parameterNumber":3,"parameterNumberName":"V-component_of_CURRENTS"},"data":[0,0,0,0.0202,0.0202,0.0179,0.0179,0.0119,0.0119,0,0,0,0,0,0,0,0,0,0,0,0.0213,0.0213,0.0203,0.0202,0.0179,0.0179,0.012,0.0119,0,0,0,0,0,0,0,0,0,0,0,0.0213,0.0213,0.0213,0.0202,0.0179,0.0178,0.012,0.0144,0,0,0,0,0,0,0,0,0,0,0.017,0.0186,0.0213,0.0213,0.0202,0.0179,0.0178,0.0145,0.0142,0.0122,0,0.0123,0,0.0118,0.0114,0.0114,0,0,0,0.0199,0.0188,0.0181,0.0213,0.0202,0.0179,0.0188,0.0144,0.0141,0.0118,0.0122,0.012,0.0117,0.0114,0.0114,0.0145,0.0145,0,0,0.0201,0.0207,0.0184,0.0179,0.02,0.0189,0.0188,0.0142,0.014,0.0122,0.0119,0.0117,0.0114,0.0113,0.0144,0.0145,0,0,0,0.0206,0.0208,0.0203,0.0182,0.0179,0.0189,0.0187,0.0142,0.014,0.0118,0.0116,0.0113,0.0112,0.0143,0.0144,0.0287,0,0,0,0.0207,0.0211,0.0203,0.0207,0.018,0.0164,0.0188,0.0144,0.0138,0.0116,0.0113,0.0112,0.0142,0.0144,0.0281,0.041,0,0,0,0.0214,0.0212,0.0211,0.0207,0.0198,0.0165,0.0161,0.0143,0.0137,0.0114,0.0112,0.0141,0.0143,0.0276,0.0398,0.0494,0,0,0,0.0218,0.0258,0.0211,0.0258,0.0198,0.0243,0.0161,0.0171,0.0162,0.0113,0.0142,0.0144,0.0274,0.0391,0.0487,0.0681,0.073,0,0,0.0281,0.0265,0.0297,0.0256,0.0322,0.0246,0.0323,0.0258,0.0184,0.0152,0.0153,0.0283,0.0398,0.0493,0.0795,0.0841,0,0,0,0.0327,0.0354,0.0363,0.0386,0.0386,0.0414,0.0352,0.0331,0.0304,0.0186,0.0283,0.0352,0.0407,0.0508,0.0545,0.0383,0.0153,0.0153,0.0153,0.0428,0.0436,0.0506,0.0521,0.054,0.0531,0.056,0.0519,0.0407,0.042,0.0466,0.0643,0.0751,0.0781,0.0611,0.0427,0.0427,0.0427,0.0428,0.0556,0.0612,0.062,0.0686,0.0699,0.075,0.0761,0.0711,0.0755,0.0619,0.0662,0.0652,0.083,0.0633,0.0437,0.0435,0.0434,0.0433,0.0433,0.0632,0.0667,0.0693,0.0798,0.0891,0.0907,0.1077,0.1024,0.0926,0.098,0.1042,0.1041,0.0872,0.0966,0.0967,0.0968,0.0969,0.097,0.097,0.0701,0.0738,0.0833,0.0932,0.1025,0.117,0.128,0.136,0.137,0.1275,0.1274,0.0941,0.0807,0.0791,0.0986,0.0983,0.0981,0.098,0.0979,0.0817,0.0819,0.0977,0.1073,0.1315,0.1573,0.1651,0.1861,0.186,0.1902,0.1421,0.1417,0.1402,0.1372,0.1369,0.1702,0.1702,0.1702,0.1702,0.0889,0.0904,0.1122,0.1311,0.1561,0.1766,0.2196,0.2325,0.2057,0.1846,0.1621,0.1493,0.1471,0.1446,0.1415,0.1406,0.1741,0.174,0.1739,0.0979,0.1034,0.1208,0.1384,0.167,0.2011,0.2461,0.2701,0.2186,0.171,0.1359,0.1358,0.1123,0.1101,0.1014,0.0983,0.0949,0,0]}],[{"header":{"parameterUnit":"m.s-1","parameterCategory":2,"la1":30.2992,"la2":30.254,"lo1":-89.0895,"lo2":-89.0443,"dy":0.0025,"dx":0.0025,"nx":19,"ny":19,"refTime":"2026-04-21T09:00:00:Z","depth":"2","parameterNumber":2,"parameterNumberName":"U-component_of_CURRENTS"},"data":[0,0,0,0.3421,0.3424,0.3506,0.3506,0.3619,0.362,0,0,0,0,0,0,0,0,0,0,0,0.3387,0.3387,0.3421,0.3424,0.3506,0.3506,0.3619,0.362,0,0,0,0,0,0,0,0,0,0,0,0.3386,0.3387,0.3388,0.3424,0.3506,0.3506,0.3619,0.3552,0,0,0,0,0,0,0,0,0,0,0.347,0.3442,0.3387,0.3388,0.3425,0.3505,0.3506,0.3548,0.3556,0.3588,0,0.3607,0,0.3626,0.3629,0.363,0,0,0,0.3412,0.3435,0.3461,0.3388,0.3426,0.3505,0.3465,0.3553,0.3561,0.3598,0.3609,0.3613,0.3628,0.363,0.3631,0.3798,0.3799,0,0,0.3407,0.3398,0.3455,0.3467,0.3456,0.3463,0.3468,0.3558,0.3569,0.3609,0.3616,0.363,0.3631,0.3632,0.3797,0.3798,0,0,0,0.3402,0.3395,0.3418,0.3462,0.3482,0.3465,0.3471,0.3565,0.3574,0.3617,0.3631,0.3632,0.3633,0.3796,0.3797,0.3824,0,0,0,0.3399,0.3393,0.3416,0.3411,0.348,0.3524,0.3477,0.3567,0.3578,0.3631,0.3632,0.3635,0.3795,0.3797,0.3821,0.3859,0,0,0,0.3381,0.3392,0.3404,0.341,0.3452,0.3523,0.3536,0.3569,0.3587,0.363,0.3635,0.3795,0.3797,0.3819,0.3854,0.3936,0,0,0,0.3364,0.3382,0.3404,0.3435,0.3452,0.3529,0.3536,0.3607,0.3648,0.3632,0.3795,0.3797,0.3818,0.3851,0.3932,0.3803,0.3809,0,0,0.3373,0.3383,0.3401,0.3423,0.3482,0.3516,0.3597,0.3658,0.3688,0.3762,0.3766,0.3822,0.3854,0.3935,0.3918,0.3921,0,0,0,0.3394,0.3403,0.3431,0.3467,0.3531,0.3605,0.3659,0.3707,0.3793,0.3724,0.3855,0.3876,0.3926,0.3841,0.3844,0.3807,0.3807,0.3806,0.3806,0.3365,0.3398,0.3431,0.3486,0.3555,0.3673,0.375,0.3827,0.3836,0.3893,0.3921,0.4036,0.3944,0.3946,0.3934,0.3934,0.3934,0.3934,0.3934,0.3345,0.3346,0.3422,0.3468,0.3572,0.3659,0.3834,0.3883,0.4025,0.3991,0.4037,0.3901,0.395,0.3937,0.3937,0.3936,0.3936,0.3936,0.3936,0.3284,0.329,0.3333,0.341,0.3525,0.3673,0.3821,0.3965,0.4069,0.4132,0.4071,0.4068,0.4062,0.4164,0.4164,0.4165,0.4165,0.4166,0.4166,0.3191,0.3235,0.3254,0.3363,0.3421,0.3575,0.3836,0.3949,0.4091,0.4126,0.4124,0.4115,0.4107,0.4078,0.4174,0.4173,0.4172,0.4171,0.417,0.3098,0.3132,0.3148,0.3191,0.3317,0.3347,0.3646,0.3846,0.402,0.4053,0.4123,0.4121,0.4114,0.4109,0.4081,0.4173,0.4173,0.4173,0.4173,0.3022,0.3046,0.3033,0.3057,0.312,0.3234,0.3257,0.3445,0.3739,0.3824,0.3839,0.3707,0.3715,0.3678,0.3683,0.3644,0.3622,0.3621,0.362,0.296,0.2973,0.292,0.2953,0.3001,0.3034,0.295,0.2923,0.3189,0.3593,0.3691,0.4146,0.3987,0.3987,0.3956,0.3954,0.3901,0,0]},{"header":{"parameterUnit":"m.s-1","parameterCategory":2,"la1":30.2992,"la2":30.254,"lo1":-89.0895,"lo2":-89.0443,"dy":0.0025,"dx":0.0025,"nx":19,"ny":19,"refTime":"2026-04-21T09:00:00:Z","depth":"2","parameterNumber":3,"parameterNumberName":"V-component_of_CURRENTS"},"data":[0,0,0,0.0323,0.0323,0.0297,0.0297,0.0253,0.0253,0,0,0,0,0,0,0,0,0,0,0,0.0335,0.0334,0.0323,0.0323,0.0297,0.0297,0.0253,0.0253,0,0,0,0,0,0,0,0,0,0,0,0.0335,0.0334,0.0334,0.0323,0.0297,0.0297,0.0253,0.0274,0,0,0,0,0,0,0,0,0,0,0.0301,0.0312,0.0334,0.0334,0.0323,0.0297,0.0297,0.0276,0.0273,0.0263,0,0.0263,0,0.0257,0.025,0.0249,0,0,0,0.0319,0.0314,0.0309,0.0334,0.0322,0.0297,0.0308,0.0274,0.0271,0.0259,0.0262,0.026,0.0256,0.0249,0.0249,0.0282,0.0283,0,0,0.0321,0.0326,0.0311,0.0308,0.032,0.0308,0.0307,0.0273,0.027,0.0262,0.0259,0.0255,0.0249,0.0249,0.0281,0.0282,0,0,0,0.0327,0.0327,0.0323,0.0309,0.0306,0.0308,0.0306,0.0272,0.0271,0.0259,0.0255,0.0249,0.0248,0.0281,0.0282,0.0396,0,0,0,0.0328,0.0331,0.0324,0.0326,0.0306,0.0289,0.0306,0.0274,0.027,0.0255,0.0249,0.0248,0.028,0.0281,0.0391,0.0469,0,0,0,0.0335,0.0331,0.033,0.0326,0.0316,0.029,0.0287,0.0273,0.0267,0.0249,0.0248,0.0279,0.0281,0.0387,0.046,0.0534,0,0,0,0.0337,0.0367,0.0331,0.0368,0.0317,0.0355,0.0287,0.03,0.0295,0.0249,0.028,0.0282,0.0386,0.0455,0.0529,0.0605,0.0635,0,0,0.0385,0.0373,0.04,0.0367,0.0427,0.0358,0.042,0.0373,0.0313,0.0288,0.0288,0.0393,0.046,0.0533,0.0698,0.0726,0,0,0,0.0423,0.0445,0.0455,0.0478,0.048,0.0503,0.0451,0.0427,0.0404,0.0316,0.0394,0.0433,0.0475,0.0509,0.0532,0.0289,0.0289,0.0289,0.0289,0.0496,0.0511,0.0574,0.0595,0.0613,0.0604,0.0616,0.0574,0.049,0.0498,0.0525,0.0663,0.07,0.0718,0.0509,0.0509,0.051,0.051,0.0511,0.0604,0.0655,0.0674,0.0737,0.0752,0.0797,0.0782,0.0736,0.0736,0.0636,0.0671,0.0628,0.075,0.052,0.0518,0.0517,0.0516,0.0515,0.0514,0.0662,0.0696,0.0728,0.0833,0.0922,0.0935,0.1053,0.098,0.0873,0.0899,0.0908,0.0906,0.0745,0.0903,0.0903,0.0904,0.0905,0.0905,0.0906,0.0714,0.0756,0.0846,0.0948,0.104,0.1164,0.1213,0.1231,0.1167,0.1066,0.1065,0.0796,0.0783,0.0768,0.0916,0.0914,0.0913,0.0912,0.0911,0.0805,0.0817,0.0964,0.1059,0.1289,0.1489,0.1514,0.1553,0.1505,0.1481,0.1154,0.1144,0.112,0.11,0.1093,0.1316,0.1316,0.1316,0.1316,0.0863,0.0881,0.1086,0.1268,0.1493,0.1649,0.187,0.1822,0.161,0.1436,0.1431,0.1348,0.133,0.1309,0.1284,0.1277,0.1549,0.155,0.155,0.0938,0.0993,0.115,0.1325,0.1592,0.1831,0.2036,0.1972,0.1632,0.1554,0.1424,0.1341,0.1199,0.1178,0.1121,0.1092,0.1069,0,0]}],[{"header":{"parameterUnit":"m.s-1","parameterCategory":2,"la1":30.2992,"la2":30.254,"lo1":-89.0895,"lo2":-89.0443,"dy":0.0025,"dx":0.0025,"nx":19,"ny":19,"refTime":"2026-04-21T09:00:00:Z","depth":"4","parameterNumber":2,"parameterNumberName":"U-component_of_CURRENTS"},"data":[0,0,0,0.2227,0.2231,0.2431,0.2432,0.2579,0.258,0,0,0,0,0,0,0,0,0,0,0,0.2166,0.2168,0.2227,0.2232,0.2431,0.2432,0.2579,0.258,0,0,0,0,0,0,0,0,0,0,0,0.2166,0.2168,0.217,0.2232,0.2431,0.2432,0.2579,0.2455,0,0,0,0,0,0,0,0,0,0,0.2274,0.2243,0.2167,0.217,0.2234,0.2431,0.2432,0.245,0.2462,0.2457,0,0.2505,0,0.2541,0.2587,0.2588,0,0,0,0.2231,0.2233,0.2277,0.217,0.2235,0.2431,0.2341,0.2458,0.2472,0.2473,0.2508,0.2514,0.2544,0.2588,0.2589,0.2735,0.2736,0,0,0.222,0.2208,0.2268,0.2286,0.2307,0.2335,0.2347,0.2467,0.2493,0.2508,0.2518,0.2546,0.2589,0.259,0.2734,0.2735,0,0,0,0.2189,0.22,0.2244,0.228,0.2323,0.234,0.2355,0.2489,0.2502,0.252,0.2548,0.2589,0.2591,0.2734,0.2735,0.2778,0,0,0,0.2182,0.2182,0.2239,0.2234,0.2321,0.2425,0.2373,0.2494,0.2508,0.2547,0.259,0.2592,0.2733,0.2734,0.2775,0.2816,0,0,0,0.2154,0.2179,0.2206,0.2233,0.2318,0.2425,0.2446,0.2498,0.2524,0.2588,0.2592,0.2732,0.2734,0.2772,0.2811,0.2886,0,0,0,0.2126,0.2164,0.2207,0.2262,0.2316,0.2424,0.2446,0.255,0.261,0.259,0.2733,0.2735,0.2771,0.2808,0.2882,0.2515,0,0,0,0.2144,0.2167,0.2194,0.2236,0.2317,0.2395,0.2498,0.2594,0.2631,0.2683,0.2688,0.2776,0.2811,0.2885,0.2627,0,0,0,0,0.2178,0.2201,0.2236,0.2301,0.2385,0.249,0.2581,0.2635,0.2743,0.2677,0.2802,0.2824,0.2868,0.2644,0.2744,0.2744,0.2743,0.2743,0.2743,0.2167,0.2206,0.2258,0.2327,0.2414,0.2565,0.2661,0.2754,0.277,0.2838,0.2877,0.299,0.2754,0.2885,0.2885,0.2886,0.2886,0.2886,0.2886,0.2158,0.2169,0.2264,0.2334,0.2457,0.2573,0.2747,0.2813,0.2965,0.2942,0.2983,0.2726,0.2891,0.289,0.2889,0.2889,0.2888,0.2888,0.2888,0.2106,0.2114,0.2191,0.2301,0.245,0.2613,0.2757,0.2912,0.3027,0.3095,0.2886,0.3047,0.3024,0.3132,0.3132,0.3133,0.3133,0.3134,0.3134,0.2007,0.2076,0.2131,0.2273,0.236,0.2532,0.2795,0.289,0.3052,0.2928,0.3139,0.3074,0.3066,0.304,0.3142,0.3141,0.314,0.3139,0.3138,0.1905,0.1969,0.2022,0.2099,0.2265,0.2349,0.264,0.2752,0.2842,0.2829,0.283,0.2843,0.2805,0.2805,0.2768,0.2793,0.2789,0.2784,0,0.1828,0.1863,0.1911,0.1966,0.203,0.2219,0.2248,0.2414,0.2573,0.2478,0.2853,0.2849,0.2856,0.2808,0.2801,0.2752,0,0,0,0.1761,0.179,0.1776,0.1849,0.189,0.2014,0.2238,0.2215,0.254,0.253,0.2676,0.2704,0.2963,0.3166,0.3141,0.3131,0.309,0,0]},{"header":{"parameterUnit":"m.s-1","parameterCategory":2,"la1":30.2992,"la2":30.254,"lo1":-89.0895,"lo2":-89.0443,"dy":0.0025,"dx":0.0025,"nx":19,"ny":19,"refTime":"2026-04-21T09:00:00:Z","depth":"4","parameterNumber":3,"parameterNumberName":"V-component_of_CURRENTS"},"data":[0,0,0,0.029,0.029,0.0288,0.0288,0.0272,0.0272,0,0,0,0,0,0,0,0,0,0,0,0.0294,0.0294,0.029,0.029,0.0288,0.0288,0.0272,0.0272,0,0,0,0,0,0,0,0,0,0,0,0.0294,0.0294,0.0294,0.029,0.0288,0.0288,0.0272,0.0277,0,0,0,0,0,0,0,0,0,0,0.028,0.0286,0.0294,0.0294,0.029,0.0288,0.0288,0.0277,0.0276,0.027,0,0.0274,0,0.0271,0.0271,0.0271,0,0,0,0.0288,0.0286,0.0286,0.0294,0.029,0.0288,0.0288,0.0277,0.0276,0.0269,0.0273,0.0273,0.0271,0.0271,0.0271,0.0299,0.03,0,0,0.0288,0.0291,0.0287,0.0286,0.0294,0.0288,0.0288,0.0276,0.0277,0.0273,0.0272,0.0271,0.0271,0.027,0.0299,0.0299,0,0,0,0.029,0.0292,0.0292,0.0286,0.0286,0.0288,0.0288,0.0278,0.0278,0.0272,0.0271,0.027,0.027,0.0298,0.0299,0.0387,0,0,0,0.029,0.0292,0.0292,0.0294,0.0287,0.0284,0.029,0.0279,0.0278,0.0271,0.027,0.027,0.0298,0.0299,0.0384,0.0441,0,0,0,0.0293,0.0292,0.0294,0.0294,0.0293,0.0284,0.0283,0.0279,0.0277,0.0271,0.027,0.0297,0.0299,0.0381,0.0435,0.0467,0,0,0,0.0293,0.0316,0.0294,0.0325,0.0293,0.033,0.0284,0.0303,0.0305,0.027,0.0298,0.0299,0.038,0.0431,0.0464,0.0474,0,0,0,0.0326,0.032,0.0341,0.0322,0.0374,0.0329,0.038,0.0357,0.0316,0.0299,0.03,0.0385,0.0434,0.0466,0.0536,0,0,0,0,0.0356,0.0374,0.0385,0.0409,0.0417,0.0441,0.0412,0.0393,0.0383,0.0321,0.0382,0.0411,0.0428,0.0423,0.0304,0.0304,0.0304,0.0304,0.0304,0.0405,0.0421,0.0473,0.0496,0.0517,0.0519,0.0528,0.0497,0.0445,0.0451,0.048,0.0564,0.0562,0.0465,0.0465,0.0466,0.0466,0.0466,0.0467,0.0479,0.0518,0.0546,0.0602,0.0623,0.0665,0.065,0.0619,0.0613,0.0553,0.0565,0.0513,0.0475,0.0474,0.0472,0.0471,0.0471,0.047,0.047,0.0515,0.0541,0.0578,0.0672,0.0754,0.0774,0.0849,0.0799,0.0715,0.0729,0.07,0.0625,0.062,0.0728,0.0728,0.0729,0.0729,0.073,0.073,0.0538,0.0581,0.066,0.0756,0.084,0.0938,0.0971,0.0962,0.0876,0.0818,0.076,0.0652,0.0643,0.0634,0.0736,0.0735,0.0734,0.0734,0.0733,0.0585,0.0609,0.0729,0.0817,0.101,0.1083,0.1121,0.1071,0.1054,0.0985,0.0846,0.0839,0.0807,0.0795,0.079,0.0942,0.0942,0.0943,0,0.0614,0.0634,0.0803,0.0953,0.1108,0.1174,0.1203,0.1176,0.1039,0.1018,0.1024,0.087,0.0862,0.0827,0.0816,0.0812,0,0,0,0.0654,0.0704,0.0823,0.0973,0.1156,0.1191,0.1211,0.1178,0.1063,0.1041,0.0957,0.0953,0.0869,0.0755,0.0689,0.0678,0.066,0,0]}]]